AFR1408 LFBZ-LFML

Flight info

Callsign AFR1408
Flight time 0h 59m
Altitude 18000
Route ORTEZ G17 AUCHE T544 TOU/N0395F190 G393 FJR Y25 SALIN
Aircraft A320/M-SDE3FGHIRWY/LB1

Departure

Time 2026-04-26 13:07
Airport Biarritz Pays Basque airport (LFBZ)

Arrival

Time 2026-04-26 14:06
Airport Marseille Provence Airport (LFML)
Time Latitude Longitude Altitude Speed Heading
2026-04-26 12:37 43.47140 -1.53067 247 ft 0 kts 344°
2026-04-26 12:57 43.47113 -1.53057 248 ft 6 kts 346°
2026-04-26 12:57 43.47074 -1.53048 248 ft 3 kts
2026-04-26 12:58 43.47055 -1.53063 248 ft 2 kts 82°
2026-04-26 12:58 43.47054 -1.53074 248 ft 2 kts 88°
2026-04-26 12:58 43.47054 -1.53088 247 ft 0 kts 91°
2026-04-26 13:00 43.47054 -1.53058 247 ft 11 kts 89°
2026-04-26 13:00 43.47044 -1.52911 247 ft 14 kts 129°
2026-04-26 13:00 43.46993 -1.52804 247 ft 13 kts 101°
2026-04-26 13:00 43.46999 -1.52690 247 ft 12 kts 83°
2026-04-26 13:01 43.46999 -1.52587 247 ft 10 kts 97°
2026-04-26 13:01 43.46997 -1.52493 247 ft 9 kts 90°
2026-04-26 13:01 43.46997 -1.52406 247 ft 9 kts 90°
2026-04-26 13:01 43.46997 -1.52325 247 ft 8 kts 90°
2026-04-26 13:02 43.46996 -1.52250 247 ft 7 kts 94°
2026-04-26 13:02 43.46974 -1.52195 247 ft 6 kts 135°
2026-04-26 13:02 43.46939 -1.52175 247 ft 4 kts 175°
2026-04-26 13:02 43.46938 -1.52175 247 ft 0 kts 177°
2026-04-26 13:04 43.46937 -1.52175 247 ft 2 kts 177°
2026-04-26 13:04 43.46863 -1.52135 249 ft 17 kts 120°
2026-04-26 13:05 43.46834 -1.51945 249 ft 24 kts 90°
2026-04-26 13:05 43.46845 -1.51672 248 ft 34 kts 88°
2026-04-26 13:05 43.46853 -1.51310 249 ft 40 kts 89°
2026-04-26 13:05 43.46881 -1.51008 250 ft 14 kts 52°
2026-04-26 13:06 43.46857 -1.50966 250 ft 4 kts 205°
2026-04-26 13:06 43.46853 -1.51002 249 ft 5 kts 267°
2026-04-26 13:06 43.46853 -1.51007 249 ft 0 kts 267°
2026-04-26 13:06 43.46849 -1.51133 249 ft 48 kts 268°
2026-04-26 13:07 43.46843 -1.51967 249 ft 122 kts 267°
2026-04-26 13:07 43.46825 -1.53397 359 ft 169 kts 271°
2026-04-26 13:07 43.46824 -1.54788 917 ft 173 kts 272°
2026-04-26 13:07 43.46807 -1.56410 1862 ft 169 kts 269°
2026-04-26 13:08 43.46782 -1.58098 2553 ft 183 kts 268°
2026-04-26 13:08 43.46739 -1.59922 3105 ft 196 kts 262°
2026-04-26 13:08 43.46120 -1.61573 3599 ft 202 kts 217°
2026-04-26 13:08 43.44797 -1.62165 4068 ft 210 kts 172°
2026-04-26 13:09 43.43472 -1.61321 4591 ft 219 kts 131°
2026-04-26 13:09 43.42759 -1.59437 5167 ft 231 kts 108°
2026-04-26 13:09 43.42269 -1.57272 5789 ft 242 kts 107°
2026-04-26 13:09 43.41792 -1.55030 6576 ft 247 kts 107°
2026-04-26 13:10 43.41311 -1.52743 7332 ft 251 kts 107°
2026-04-26 13:10 43.40820 -1.50424 8118 ft 254 kts 107°
2026-04-26 13:10 43.40314 -1.48081 8921 ft 257 kts 107°
2026-04-26 13:10 43.39796 -1.45709 9727 ft 261 kts 107°
2026-04-26 13:11 43.39400 -1.43261 10489 ft 265 kts 94°
2026-04-26 13:11 43.39355 -1.40655 10952 ft 281 kts 90°
2026-04-26 13:11 43.39333 -1.37890 11378 ft 299 kts 90°
2026-04-26 13:11 43.39309 -1.34955 11798 ft 316 kts 90°
2026-04-26 13:12 43.39279 -1.31856 12199 ft 333 kts 90°
2026-04-26 13:12 43.39242 -1.28587 12574 ft 350 kts 90°
2026-04-26 13:12 43.39199 -1.25160 12919 ft 367 kts 90°
2026-04-26 13:12 43.39156 -1.21595 13381 ft 378 kts 90°
2026-04-26 13:13 43.39111 -1.17955 14054 ft 383 kts 90°
2026-04-26 13:13 43.39063 -1.14321 14676 ft 386 kts 91°
2026-04-26 13:13 43.39010 -1.10607 15310 ft 389 kts 91°
2026-04-26 13:13 43.38956 -1.06880 15951 ft 392 kts 91°
2026-04-26 13:14 43.38898 -1.03118 16607 ft 394 kts 91°
2026-04-26 13:14 43.38839 -0.99342 17262 ft 397 kts 91°
2026-04-26 13:14 43.38775 -0.95539 17893 ft 399 kts 91°
2026-04-26 13:14 43.38712 -0.91722 18137 ft 399 kts 91°
2026-04-26 13:15 43.38453 -0.87860 18186 ft 415 kts 98°
2026-04-26 13:15 43.37992 -0.83862 18187 ft 432 kts 99°
2026-04-26 13:15 43.37508 -0.79751 18186 ft 437 kts 99°
2026-04-26 13:15 43.37027 -0.75622 18190 ft 438 kts 97°
2026-04-26 13:16 43.36867 -0.71454 18187 ft 437 kts 88°
2026-04-26 13:16 43.37204 -0.67304 18190 ft 437 kts 78°
2026-04-26 13:16 43.37820 -0.63214 18189 ft 437 kts 78°
2026-04-26 13:16 43.38427 -0.59120 18191 ft 437 kts 78°
2026-04-26 13:17 43.39602 -0.51081 18193 ft 437 kts 78°
2026-04-26 13:17 43.40193 -0.46995 18193 ft 437 kts 78°
2026-04-26 13:18 43.41377 -0.38786 18195 ft 437 kts 78°
2026-04-26 13:18 43.41965 -0.34689 18195 ft 437 kts 78°
2026-04-26 13:18 43.43144 -0.26489 18199 ft 437 kts 78°
2026-04-26 13:19 43.43688 -0.22719 18201 ft 437 kts 78°
2026-04-26 13:19 43.44284 -0.18615 18201 ft 437 kts 78°
2026-04-26 13:19 43.44875 -0.14512 18205 ft 437 kts 78°
2026-04-26 13:19 43.45459 -0.10414 18207 ft 437 kts 78°
2026-04-26 13:20 43.46040 -0.06303 18206 ft 437 kts 78°
2026-04-26 13:20 43.46707 -0.02230 18203 ft 436 kts 72°
2026-04-26 13:20 43.47792 0.01665 18205 ft 436 kts 65°
2026-04-26 13:20 43.49035 0.05468 18201 ft 436 kts 65°
2026-04-26 13:21 43.50276 0.09281 18201 ft 436 kts 65°
2026-04-26 13:21 43.51089 0.11799 18201 ft 436 kts 65°
2026-04-26 13:21 43.52731 0.16909 18197 ft 436 kts 65°
2026-04-26 13:21 43.53958 0.20726 18191 ft 436 kts 65°
2026-04-26 13:22 43.55185 0.24542 18191 ft 435 kts 65°
2026-04-26 13:22 43.56397 0.28319 18191 ft 436 kts 65°
2026-04-26 13:22 43.57636 0.32190 18185 ft 436 kts 65°
2026-04-26 13:22 43.58841 0.35968 18183 ft 436 kts 65°
2026-04-26 13:23 43.60079 0.39848 18182 ft 436 kts 65°
2026-04-26 13:23 43.61298 0.43672 18183 ft 436 kts 65°
2026-04-26 13:23 43.62499 0.47447 18184 ft 436 kts 65°
2026-04-26 13:23 43.63716 0.51283 18188 ft 436 kts 66°
2026-04-26 13:24 43.64741 0.55205 18181 ft 436 kts 74°
2026-04-26 13:24 43.65291 0.59318 18177 ft 437 kts 84°
2026-04-26 13:24 43.65468 0.63502 18176 ft 437 kts 86°
2026-04-26 13:24 43.65629 0.67707 18178 ft 437 kts 86°
2026-04-26 13:25 43.65797 0.71899 18176 ft 437 kts 86°
2026-04-26 13:25 43.65973 0.76095 18182 ft 438 kts 86°
2026-04-26 13:25 43.66146 0.80291 18179 ft 437 kts 86°
2026-04-26 13:25 43.66311 0.84288 18182 ft 437 kts 86°
2026-04-26 13:26 43.66479 0.88478 18182 ft 437 kts 86°
2026-04-26 13:26 43.66648 0.92671 18179 ft 437 kts 86°
2026-04-26 13:26 43.66815 0.96865 18180 ft 437 kts 86°
2026-04-26 13:26 43.66979 1.01055 18177 ft 437 kts 86°
2026-04-26 13:27 43.67138 1.05251 18180 ft 438 kts 86°
2026-04-26 13:27 43.67294 1.09449 18174 ft 438 kts 86°
2026-04-26 13:27 43.67448 1.13640 18172 ft 438 kts 86°
2026-04-26 13:27 43.67603 1.17844 18170 ft 438 kts 86°
2026-04-26 13:28 43.67758 1.22048 18174 ft 438 kts 86°
2026-04-26 13:28 43.67911 1.26251 18169 ft 438 kts 86°
2026-04-26 13:28 43.68065 1.30453 18172 ft 438 kts 86°
2026-04-26 13:28 43.68233 1.34659 18173 ft 438 kts 85°
2026-04-26 13:29 43.68435 1.38860 18170 ft 438 kts 85°
2026-04-26 13:29 43.68580 1.41641 18177 ft 439 kts 85°
2026-04-26 13:29 43.68883 1.47260 18173 ft 439 kts 85°
2026-04-26 13:29 43.69108 1.51462 18173 ft 439 kts 85°
2026-04-26 13:30 43.69326 1.55682 18174 ft 439 kts 85°
2026-04-26 13:30 43.69530 1.59893 18169 ft 439 kts 85°
2026-04-26 13:30 43.69727 1.64089 18174 ft 440 kts 85°
2026-04-26 13:30 43.69921 1.68266 18173 ft 440 kts 85°
2026-04-26 13:31 43.70121 1.72540 18176 ft 440 kts 85°
2026-04-26 13:31 43.70319 1.76752 18179 ft 440 kts 85°
2026-04-26 13:31 43.70516 1.80975 18180 ft 440 kts 85°
2026-04-26 13:31 43.70710 1.85145 18188 ft 440 kts 85°
2026-04-26 13:32 43.70903 1.89365 18182 ft 440 kts 85°
2026-04-26 13:32 43.71094 1.93588 18189 ft 440 kts 85°
2026-04-26 13:32 43.71283 1.97821 18190 ft 441 kts 85°
2026-04-26 13:32 43.71468 2.02050 18186 ft 441 kts 85°
2026-04-26 13:33 43.71679 2.06283 18193 ft 441 kts 84°
2026-04-26 13:33 43.71960 2.10509 18186 ft 441 kts 83°
2026-04-26 13:33 43.72286 2.14724 18188 ft 441 kts 83°
2026-04-26 13:33 43.72625 2.18873 18201 ft 441 kts 83°
2026-04-26 13:34 43.72966 2.23091 18196 ft 441 kts 82°
2026-04-26 13:34 43.73296 2.27314 18189 ft 442 kts 83°
2026-04-26 13:34 43.73612 2.31537 18189 ft 442 kts 83°
2026-04-26 13:34 43.73815 2.34340 18190 ft 442 kts 83°
2026-04-26 13:35 43.74211 2.39996 18188 ft 442 kts 83°
2026-04-26 13:35 43.74502 2.44234 18188 ft 442 kts 83°
2026-04-26 13:35 43.74792 2.48466 18186 ft 443 kts 83°
2026-04-26 13:35 43.75084 2.52701 18182 ft 443 kts 83°
2026-04-26 13:36 43.75378 2.56946 18175 ft 443 kts 83°
2026-04-26 13:36 43.75672 2.61186 18176 ft 443 kts 83°
2026-04-26 13:36 43.75967 2.65424 18169 ft 443 kts 83°
2026-04-26 13:36 43.76261 2.69665 18164 ft 443 kts 83°
2026-04-26 13:37 43.76550 2.73887 18159 ft 443 kts 83°
2026-04-26 13:37 43.76836 2.78134 18157 ft 443 kts 83°
2026-04-26 13:37 43.77116 2.82373 18154 ft 443 kts 84°
2026-04-26 13:37 43.77178 2.86579 18153 ft 444 kts 92°
2026-04-26 13:38 43.76752 2.90813 18146 ft 446 kts 102°
2026-04-26 13:38 43.76024 2.94980 18145 ft 446 kts 103°
2026-04-26 13:38 43.75293 2.99151 18139 ft 447 kts 103°
2026-04-26 13:38 43.74568 3.03323 18148 ft 446 kts 103°
2026-04-26 13:39 43.73845 3.07488 18135 ft 446 kts 103°
2026-04-26 13:39 43.73262 3.10818 18132 ft 445 kts 103°
2026-04-26 13:39 43.72534 3.14977 18146 ft 445 kts 103°
2026-04-26 13:39 43.71806 3.19136 18131 ft 444 kts 103°
2026-04-26 13:40 43.71075 3.23298 18128 ft 444 kts 103°
2026-04-26 13:40 43.70343 3.27438 18134 ft 444 kts 103°
2026-04-26 13:40 43.69610 3.31585 18134 ft 444 kts 103°
2026-04-26 13:40 43.68877 3.35729 18138 ft 443 kts 103°
2026-04-26 13:41 43.68149 3.39832 18127 ft 443 kts 103°
2026-04-26 13:41 43.67417 3.43963 18127 ft 443 kts 103°
2026-04-26 13:41 43.66682 3.48091 18123 ft 443 kts 103°
2026-04-26 13:41 43.65941 3.52219 18115 ft 443 kts 104°
2026-04-26 13:42 43.65199 3.56349 18118 ft 443 kts 103°
2026-04-26 13:42 43.64465 3.60483 18118 ft 443 kts 103°
2026-04-26 13:42 43.63734 3.64618 18117 ft 444 kts 103°
2026-04-26 13:42 43.63001 3.68758 18117 ft 444 kts 104°
2026-04-26 13:43 43.62517 3.71482 18118 ft 444 kts 103°
2026-04-26 13:43 43.61779 3.75621 18112 ft 444 kts 104°
2026-04-26 13:43 43.61038 3.79763 18119 ft 444 kts 104°
2026-04-26 13:43 43.60294 3.83901 18115 ft 444 kts 104°
2026-04-26 13:44 43.59547 3.88034 18117 ft 444 kts 104°
2026-04-26 13:44 43.58799 3.92163 18118 ft 444 kts 104°
2026-04-26 13:44 43.57997 3.96274 18120 ft 444 kts 109°
2026-04-26 13:44 43.56798 4.00191 18116 ft 444 kts 118°
2026-04-26 13:45 43.55342 4.03941 18116 ft 443 kts 118°
2026-04-26 13:45 43.53888 4.07690 18116 ft 444 kts 118°
2026-04-26 13:45 43.52438 4.11444 18114 ft 444 kts 118°
2026-04-26 13:45 43.50992 4.15199 18112 ft 442 kts 118°
2026-04-26 13:46 43.49567 4.18895 17348 ft 437 kts 118°
2026-04-26 13:46 43.48145 4.22575 16683 ft 432 kts 118°
2026-04-26 13:46 43.46749 4.26185 16119 ft 424 kts 118°
2026-04-26 13:46 43.45370 4.29742 15542 ft 419 kts 118°
2026-04-26 13:47 43.44004 4.33258 14971 ft 414 kts 118°
2026-04-26 13:47 43.42653 4.36731 14377 ft 409 kts 118°
2026-04-26 13:47 43.41316 4.40158 13751 ft 405 kts 118°
2026-04-26 13:47 43.39984 4.43556 13120 ft 401 kts 118°
2026-04-26 13:48 43.38669 4.46907 12482 ft 395 kts 118°
2026-04-26 13:48 43.37372 4.50205 11838 ft 391 kts 118°
2026-04-26 13:48 43.36078 4.53467 11171 ft 386 kts 118°
2026-04-26 13:48 43.34803 4.56669 10846 ft 373 kts 118°
2026-04-26 13:49 43.33603 4.59674 10739 ft 355 kts 118°
2026-04-26 13:49 43.32443 4.62571 10608 ft 338 kts 118°
2026-04-26 13:49 43.31333 4.65343 10497 ft 323 kts 118°
2026-04-26 13:49 43.30277 4.67982 10361 ft 305 kts 118°
2026-04-26 13:50 43.29282 4.70475 9982 ft 293 kts 117°
2026-04-26 13:50 43.28461 4.73014 9845 ft 291 kts 105°
2026-04-26 13:50 43.28120 4.75732 9721 ft 289 kts 92°
2026-04-26 13:50 43.27998 4.78482 9588 ft 289 kts 92°
2026-04-26 13:51 43.27860 4.81216 9455 ft 288 kts 93°
2026-04-26 13:51 43.27716 4.83954 9339 ft 287 kts 93°
2026-04-26 13:51 43.27601 4.86074 9234 ft 287 kts 93°
2026-04-26 13:51 43.27674 4.88790 9099 ft 285 kts 78°
2026-04-26 13:52 43.28276 4.91360 8976 ft 283 kts 63°
2026-04-26 13:52 43.29357 4.93601 8847 ft 282 kts 49°
2026-04-26 13:52 43.30635 4.95646 8716 ft 281 kts 49°
2026-04-26 13:52 43.31900 4.97695 8589 ft 281 kts 50°
2026-04-26 13:53 43.33157 4.99744 8476 ft 280 kts 50°
2026-04-26 13:53 43.34410 5.01795 8353 ft 280 kts 50°
2026-04-26 13:53 43.35661 5.03837 8228 ft 279 kts 50°
2026-04-26 13:53 43.36896 5.05849 8098 ft 278 kts 49°
2026-04-26 13:54 43.38311 5.07646 7975 ft 278 kts 34°
2026-04-26 13:54 43.40057 5.08870 7843 ft 278 kts 19°
2026-04-26 13:54 43.41923 5.09424 7718 ft 279 kts
2026-04-26 13:55 43.45759 5.10235 7471 ft 278 kts
2026-04-26 13:55 43.47050 5.10513 7395 ft 278 kts
2026-04-26 13:55 43.51493 5.11480 7081 ft 277 kts 10°
2026-04-26 13:56 43.53403 5.11900 6963 ft 277 kts
2026-04-26 13:56 43.55300 5.12316 6838 ft 277 kts 10°
2026-04-26 13:56 43.57204 5.12735 6717 ft 276 kts 10°
2026-04-26 13:56 43.59085 5.12938 6615 ft 278 kts 357°
2026-04-26 13:57 43.61003 5.12396 6414 ft 278 kts 340°
2026-04-26 13:57 43.62710 5.11156 6195 ft 277 kts 328°
2026-04-26 13:57 43.64333 5.09733 5978 ft 276 kts 329°
2026-04-26 13:57 43.65936 5.08345 5849 ft 267 kts 328°
2026-04-26 13:58 43.67476 5.07017 5747 ft 254 kts 329°
2026-04-26 13:58 43.68800 5.05478 5617 ft 246 kts 301°
2026-04-26 13:58 43.69224 5.03292 5490 ft 236 kts 263°
2026-04-26 13:58 43.68602 5.01255 5358 ft 230 kts 231°
2026-04-26 13:59 43.67598 4.99558 5210 ft 227 kts 231°
2026-04-26 13:59 43.66572 4.97922 5066 ft 225 kts 228°
2026-04-26 13:59 43.65512 4.96331 4916 ft 224 kts 227°
2026-04-26 14:00 43.61682 4.95827 4333 ft 198 kts 132°
2026-04-26 14:00 43.60765 4.97199 4216 ft 194 kts 132°
2026-04-26 14:00 43.60146 4.98072 4134 ft 192 kts 133°
2026-04-26 14:01 43.58897 4.99795 4010 ft 191 kts 133°
2026-04-26 14:01 43.57966 5.01097 3967 ft 190 kts 133°
2026-04-26 14:01 43.57040 5.02403 3604 ft 192 kts 133°
2026-04-26 14:01 43.56103 5.03737 3261 ft 194 kts 133°
2026-04-26 14:02 43.55171 5.05072 2943 ft 189 kts 133°
2026-04-26 14:02 43.54293 5.06328 2722 ft 174 kts 133°
2026-04-26 14:02 43.53498 5.07465 2487 ft 156 kts 134°
2026-04-26 14:02 43.52778 5.08496 2287 ft 144 kts 134°
2026-04-26 14:03 43.52088 5.09483 2100 ft 143 kts 134°
2026-04-26 14:03 43.51400 5.10467 1913 ft 142 kts 135°
2026-04-26 14:03 43.50714 5.11448 1725 ft 141 kts 135°
2026-04-26 14:03 43.50034 5.12420 1548 ft 138 kts 135°
2026-04-26 14:04 43.49359 5.13384 1374 ft 138 kts 135°
2026-04-26 14:04 43.48704 5.14319 1195 ft 138 kts 136°
2026-04-26 14:04 43.48045 5.15276 1055 ft 137 kts 136°
2026-04-26 14:04 43.47392 5.16203 825 ft 134 kts 139°
2026-04-26 14:05 43.46734 5.17137 605 ft 137 kts 139°
2026-04-26 14:05 43.46070 5.18083 442 ft 137 kts 140°
2026-04-26 14:05 43.45407 5.19027 301 ft 137 kts 140°
2026-04-26 14:05 43.44735 5.19976 142 ft 138 kts 138°
2026-04-26 14:06 43.44084 5.20911 42 ft 128 kts 138°
2026-04-26 14:06 43.43587 5.21598 36 ft 60 kts 129°
2026-04-26 14:06 43.43408 5.21870 35 ft 37 kts 135°
2026-04-26 14:06 43.43336 5.22156 37 ft 26 kts 84°
2026-04-26 14:07 43.43385 5.22294 37 ft 14 kts 23°
2026-04-26 14:07 43.43473 5.22244 37 ft 21 kts 330°
2026-04-26 14:07 43.43621 5.22122 37 ft 26 kts 328°
2026-04-26 14:07 43.43708 5.22156 37 ft 12 kts 53°
2026-04-26 14:08 43.43800 5.22227 38 ft 11 kts 343°
2026-04-26 14:08 43.43850 5.22244 37 ft 6 kts 83°
2026-04-26 14:08 43.43863 5.22309 37 ft 5 kts 74°
2026-04-26 14:08 43.43863 5.22312 38 ft 0 kts 74°